This is the latest recevied weather packets stored in our database for station/object KD8LPB. If no packets are shown the sender has not sent any weather packets the latest 10 day(s).
| Time | Temp. | Humidity | Pressure | Rain* | Wind** | Luminosity | Snow |
|---|---|---|---|---|---|---|---|
| 1778085046 | 5° C | 78% | 1011.3 hPa | 0 mm | - | - | - |
| 1778084149 | 4.44° C | 77% | 1011.2 hPa | 0 mm | - | - | - |
| 1778079638 | 3.89° C | 81% | 1010.8 hPa | 0 mm | - | - | - |
| 1778078738 | 3.33° C | 80% | 1010.7 hPa | 0 mm | - | - | - |
| 1778077836 | 3.33° C | 82% | 1010.4 hPa | 0 mm | - | - | - |
| 1778074236 | 2.78° C | 82% | 1010.2 hPa | 0 mm | - | - | - |
| 1778072435 | 2.78° C | 82% | 1010 hPa | 0 mm | - | - | - |
| 1778070644 | 2.78° C | 79% | 1009.7 hPa | 0 mm | - | - | - |
| 1778069739 | 2.22° C | 80% | 1009.5 hPa | 0 mm | - | - | - |
| 1778067943 | 1.67° C | 83% | 1009.2 hPa | 0 mm | - | - | - |
| 1778056233 | 1.67° C | 85% | 1008.7 hPa | 0 mm | - | - | - |
| 1778050835 | 2.22° C | 84% | 1008.5 hPa | 0 mm | - | - | - |
| 1778046336 | 2.22° C | 82% | 1008.6 hPa | 0 mm | - | - | - |
| 1778043637 | 2.22° C | 83% | 1008.5 hPa | 0 mm | - | - | - |
| 1778041840 | 2.22° C | 81% | 1008.5 hPa | 0 mm | - | - | - |
| 1778040940 | 2.22° C | 82% | 1008.5 hPa | 0 mm | - | - | - |
| 1778040039 | 2.22° C | 82% | 1008.4 hPa | 0 mm | - | - | - |
| 1778039137 | 1.67° C | 80% | 1008.5 hPa | 0 mm | - | - | - |
| 1778037339 | 1.67° C | 87% | 1008.6 hPa | 0 mm | - | - | - |
| 1778031941 | 1.11° C | 84% | 1008.5 hPa | 0 mm | - | - | - |
| 1778027435 | 1.67° C | 87% | 1008.2 hPa | 0 mm | - | - | - |
| 1778024745 | 2.78° C | 83% | 1008.1 hPa | 0 mm | - | - | - |
| 1778017537 | 3.33° C | 81% | 1007.7 hPa | 0 mm | - | - | - |
| 1778015742 | 3.33° C | 80% | 1007.6 hPa | 0 mm | - | - | - |
| 1778006737 | 3.89° C | 76% | 1005.8 hPa | 0 mm | - | - | - |
* Rain latest hour (hover to see other rain measurements)
** Current wind speed in m/s (hover to see current wind gust speed)